Main page
METAR-TAF:

METAR-TAF

Airports :

Oil platform

K13-a, Netherlands

latitude: 53-13-04N, longitude: 3-13-13E, elevation: 31 m

Current weather observation

The report was made 45 minutes ago, at 02:55 UTC
Wind 6 kt from the North, varying between Northwest and North/Northeast
Temperature 14°C
Humidity 63%
Pressure 1014 hPa

METAR: EHJR 230255Z AUTO 01006KT 320V030 //// // ///////// 14/07 Q1014 RE// W18/H14

Time: 05:40 (03:40 UTC)


TAF: missing

Weather observations and forecasts of more than 4000 airports (METAR and TAF reports).

The available stations are represented by yellow and red dots on the map.

Hover mouse over dot to see the name of the station.

Then click to see weather observations and forecasts.

To change the map : click on the green buttons with a black cross to zoom in, on the green button with a dash to zoom out, or on the green arrows for adjacent maps.


METAR-TAF: